Flight Track Log - Related Links

Times and Time Zones

All times are in EDT time to prevent confusion due to time zone crossing. See the SWA2236 flight status page for this flight to view local times or setup timezone preferences in your user account.

Time Position Orientation Groundspeed Altitude Reporting Facility
EDT Latitude Longitude Course Direction KTS MPH feet Rate Location/Type
Mon 07:08:16 AM 32.8333 -96.8333 128° Southeast 160 184 1,400  Level Dallas / Fort Worth TRACON
Mon 07:09:16 AM 32.8000 -96.7833 128° Southeast 221 254 3,300 2,132 Climbing Dallas / Fort Worth TRACON
Mon 07:10:17 AM 32.7500 -96.7833 180° South 222 255 5,700 3,118 Climbing Dallas / Fort Worth TRACON
Mon 07:11:23 AM 32.7333 -96.8667 257° West 268 308 9,900 3,018 Climbing Dallas / Fort Worth TRACON
Mon 07:13:02 AM 32.7639 -97.0403 282° West 324 373 14,000 2,642 Climbing Fort Worth Center
Mon 07:14:02 AM 32.7892 -97.1564 285° West 346 398 16,900 3,000 Climbing Fort Worth Center
Mon 07:15:02 AM 32.8292 -97.2675 293° West 370 426 20,000 2,950 Climbing Fort Worth Center
Mon 07:16:02 AM 32.8625 -97.3714 291° West 370 426 22,800 2,000 Climbing Fort Worth Center
Mon 07:17:02 AM 32.9000 -97.4900 291° West 376 433 24,000 1,550 Climbing Fort Worth Center
Mon 07:18:02 AM 32.9417 -97.6164 291° West 389 448 25,900 2,000 Climbing Fort Worth Center
Mon 07:19:02 AM 32.9833 -97.7428 291° West 405 466 28,000 2,050 Climbing Fort Worth Center
Mon 07:20:02 AM 33.0267 -97.8744 291° West 411 473 30,000 1,950 Climbing Fort Worth Center
Mon 07:21:02 AM 33.0658 -97.9983 291° West 411 473 31,900 1,600 Climbing Fort Worth Center
Mon 07:22:02 AM 33.1069 -98.1278 291° West 411 473 33,200 1,300 Climbing Fort Worth Center
Mon 07:23:02 AM 33.1500 -98.2594 291° West 411 473 34,500 1,650 Climbing Fort Worth Center
Mon 07:24:02 AM 33.1906 -98.3914 290° West 411 473 36,500 1,700 Climbing Fort Worth Center
Mon 07:25:02 AM 33.2333 -98.5261 291° West 406 467 37,900 750 Climbing Fort Worth Center
Mon 07:26:02 AM 33.2719 -98.6508 290° West 406 467 38,000 50 Climbing Fort Worth Center
Mon 07:27:02 AM 33.3122 -98.7781 291° West 406 467 38,000  Level Fort Worth Center
Mon 07:28:02 AM 33.3525 -98.9031 291° West 406 467 38,000  Level Fort Worth Center
Mon 07:29:02 AM 33.3906 -99.0281 290° West 406 467 38,000  Level Fort Worth Center
Mon 07:30:02 AM 33.4286 -99.1508 290° West 406 467 38,000  Level Fort Worth Center
Mon 07:31:02 AM 33.4667 -99.2761 290° West 406 467 38,000  Level Fort Worth Center
Mon 07:32:02 AM 33.5042 -99.4014 290° West 406 467 38,000  Level Fort Worth Center
Mon 07:33:02 AM 33.5439 -99.5244 291° West 406 467 38,000  Level Fort Worth Center
Mon 07:34:02 AM 33.5814 -99.6525 289° West 406 467 38,000  Level Fort Worth Center
Mon 07:35:02 AM 33.6208 -99.7781 291° West 406 467 38,000  Level Fort Worth Center
Mon 07:36:02 AM 33.6581 -99.9039 290° West 406 467 38,000  Level Fort Worth Center
Mon 07:37:02 AM 33.6953 -100.0297 290° West 406 467 38,000  Level Fort Worth Center
Mon 07:38:02 AM 33.7303 -100.1458 290° West 411 473 38,000  Level Fort Worth Center
Mon 07:39:02 AM 33.7692 -100.2744 290° West 406 467 38,000  Level Fort Worth Center
Mon 07:40:02 AM 33.8058 -100.4006 289° West 406 467 38,000  Level Fort Worth Center
Mon 07:41:02 AM 33.8425 -100.5269 289° West 406 467 38,000  Level Fort Worth Center
Mon 07:42:02 AM 33.8808 -100.6533 290° West 406 467 38,000  Level Fort Worth Center
Mon 07:43:02 AM 33.9192 -100.7850 289° West 406 467 38,000  Level Fort Worth Center
Mon 07:44:02 AM 33.9533 -100.9139 288° West 406 467 38,000  Level Fort Worth Center
Mon 07:45:02 AM 33.9972 -101.0533 291° West 406 467 38,000  Level Fort Worth Center
Mon 07:46:02 AM 34.0311 -101.1728 289° West 406 467 38,000  Level Fort Worth Center
Mon 07:47:02 AM 34.0728 -101.3150 290° West 412 474 38,000  Level Fort Worth Center
Mon 07:48:02 AM 34.1044 -101.4317 288° West 412 474 38,000  Level Fort Worth Center
Mon 07:49:02 AM 34.1436 -101.5739 288° West 412 474 38,000  Level Fort Worth Center
Mon 07:50:34 AM 34.1956 -101.7564 289° West 410 472 38,000  Level Albuquerque Center
Mon 07:51:35 AM 34.2333 -101.8886 289° West 413 475 38,000  Level Albuquerque Center
Mon 07:52:35 AM 34.2700 -102.0214 289° West 415 478 38,000  Level Albuquerque Center
Mon 07:53:35 AM 34.3069 -102.1542 289° West 417 480 38,000  Level Albuquerque Center
Mon 07:54:35 AM 34.3444 -102.2872 289° West 416 479 38,000  Level Albuquerque Center
Mon 07:55:36 AM 34.3814 -102.4219 288° West 418 481 38,000  Level Albuquerque Center
Mon 07:56:36 AM 34.4183 -102.5572 288° West 420 483 38,000  Level Albuquerque Center
Mon 07:57:36 AM 34.4556 -102.6925 288° West 421 484 38,000  Level Albuquerque Center
Mon 07:58:37 AM 34.4969 -102.8481 288° West 421 484 38,000  Level Albuquerque Center
Mon 07:59:37 AM 34.5108 -102.9706 278° West 432 497 38,000  Level Albuquerque Center
Mon 08:00:37 AM 34.5289 -103.1169 279° West 435 501 38,000  Level Albuquerque Center
Mon 08:01:38 AM 34.5472 -103.2631 279° West 434 499 38,000  Level Albuquerque Center
Mon 08:02:38 AM 34.5633 -103.4092 278° West 433 498 38,000  Level Albuquerque Center
Mon 08:03:38 AM 34.5806 -103.5542 278° West 431 496 38,000  Level Albuquerque Center
Mon 08:04:39 AM 34.6106 -103.6967 284° West 431 496 38,000  Level Albuquerque Center
Mon 08:05:39 AM 34.6461 -103.8350 287° West 426 490 38,000  Level Albuquerque Center
Mon 08:06:40 AM 34.6803 -103.9758 286° West 427 491 38,000  Level Albuquerque Center
Mon 08:07:40 AM 34.7142 -104.1181 286° West 431 496 38,000  Level Albuquerque Center
Mon 08:08:40 AM 34.7492 -104.2619 287° West 435 501 38,000  Level Albuquerque Center
Mon 08:09:41 AM 34.7836 -104.4053 286° West 436 502 38,000  Level Albuquerque Center
Mon 08:10:41 AM 34.8122 -104.5522 283° West 439 505 38,000 -149 Level Albuquerque Center
Mon 08:11:42 AM 34.8289 -104.7053 278° West 449 517 37,700 -1,587 Descending Albuquerque Center
Mon 08:12:42 AM 34.8464 -104.8575 278° West 449 517 34,800 -2,950 Descending Albuquerque Center
Mon 08:13:42 AM 34.8633 -105.0111 278° West 451 519 31,800 -2,628 Descending Albuquerque Center
Mon 08:14:43 AM 34.8800 -105.1636 278° West 451 519 29,500 -2,231 Descending Albuquerque Center
Mon 08:15:43 AM 34.8956 -105.3097 277° West 437 503 27,300 -2,182 Descending Albuquerque Center
Mon 08:16:44 AM 34.9114 -105.4522 278° West 425 489 25,100 -2,132 Descending Albuquerque Center
Mon 08:17:44 AM 34.9256 -105.5906 277° West 413 475 23,000 -2,033 Descending Albuquerque Center
Mon 08:18:45 AM 34.9392 -105.7247 277° West 401 461 21,000 -1,983 Descending Albuquerque Center
Mon 08:19:45 AM 34.9522 -105.8561 277° West 391 450 19,000 -1,785 Descending Albuquerque Center
Mon 08:20:46 AM 34.9619 -105.9633 276° West 384 442 17,400 -1,488 Descending Albuquerque Center
Mon 08:21:46 AM 34.9744 -106.0894 277° West 377 434 16,000 -1,636 Descending Albuquerque Center
Mon 08:22:47 AM 34.9719 -106.2119 269° West 366 421 14,100 -1,488 Descending Albuquerque Center
Mon 08:23:47 AM 34.9594 -106.3339 263° West 374 430 13,000 -545 Descending Albuquerque Center
Mon 08:24:48 AM 34.9600 -106.4328 270° West 308 354 13,000 -198 Level Albuquerque Center
Mon 08:25:48 AM 34.9547 -106.5386 267° West 266 306 12,600 -744 Descending Albuquerque Center
Mon 08:26:49 AM 34.9203 -106.6025 237° Southwest 239 275 11,500 -1,240 Descending Albuquerque Center
Mon 08:27:49 AM 34.8964 -106.6528 240° Southwest 208 239 10,100 -1,438 Descending Albuquerque Center
Mon 08:28:50 AM 34.8967 -106.6933 270° West 182 209 8,600 -1,339 Descending Albuquerque Center
Mon 08:29:50 AM 34.9358 -106.6947 358° North 166 191 7,400 -992 Descending Albuquerque Center
Mon 08:30:51 AM 34.9733 -106.6811 17° North 149 171 6,600 -793 Descending Albuquerque Center
Mon 08:31:51 AM 35.0050 -106.6517 37° Northeast 145 167 5,800 -645 Descending Albuquerque Center
Mon 08:32:52 AM 35.0303 -106.6186 47° Northeast 147 169 5,300 -492 Descending Albuquerque Center
Mon 08:34:00 AM 35.0333 -106.6000 90° East  Level FlightAware Approximate

Login

Don't have an account? Register now (free) for customized features, flight alerts, and more!